(162853) = 2001 BO72 = 2001 DO43

Discovered at Socorro on 2001-02-19 by LINEAR.

Orbit

Orbit type: Main Belt

Note: WebGL enabled browser required.

epoch2023-09-13.0
epoch JD2460200.5
perihelion date2020-10-29.10261
perihelion JD2459151.60261
argument of perihelion (°)100.10210
ascending node (°)335.46625
inclination (°)5.14477
eccentricity0.2166740
perihelion distance (AU)1.9916422
Tisserand w.r.t. Jupiter3.4
ΔV w.r.t. Earth (km/sec)9.0
semimajor axis (AU)2.5425456
mean anomaly (°)254.99620
mean daily motion (°/day)0.24310880
aphelion distance (AU)3.093
period (years)4.05
P-vector [x]0.24757800
P-vector [y]0.85010440
P-vector [z]0.46478775
Q-vector [x]-0.96815222
Q-vector [y]0.23550574
Q-vector [z]0.08496078
absolute magnitude16.06
phase slope0.15
uncertainty0
referenceMPEC 2023-Q21
observations used748
oppositions16
arc length (days)9629
first opposition used1997
last opposition used2023
residual rms (arc-secs)0.65
perturbers coarse indicatorM-v
perturbers precise indicator003Ek
first observation date used1997-04-07.0
last observation date used2023-08-18.0
computer nameMPCLINUX
JD of orbit computation2456819.510390
perihelion JD uncertainty (days)8.3177E-05
argument of perihelion uncertainty (°)5.2298E-05
ascending node uncertainty (°)4.7029E-05
inclination uncertainty (°)8.2518E-06
eccentricity uncertainty 6.7953E-08
perihelion distance uncertainty (AU)1.7723E-07
Minimum Orbit Intersection Distances (in AU)
for orbit epoch: 2460200.5, reference: E2023-Q21
Mercury1.68431
Venus1.27554
Earth1.01324
Mars0.43803
Jupiter2.2021
Saturn6.95837
Uranus15.7892
Neptune27.3643

Observations

766 total observations over interval: 1997 04 07.13971 – 2023 08 18.291671
These data are available for download (format description).

Date (UT) J2000 RA J2000 Dec Magn Location Ref
1997 04 07.13971 10 27 53.67 +07 25 17.9 20.1 V 691 – Steward Observatory, Kitt Peak-Spacewatch MPS 82954
1997 04 07.16253 10 27 53.21 +07 25 18.3 20.4 V 691 – Steward Observatory, Kitt Peak-Spacewatch MPS 82954
1997 04 07.18438 10 27 52.81 +07 25 19.2 20.5 V 691 – Steward Observatory, Kitt Peak-Spacewatch MPS 82954
2001 01 31.34457 10 46 02.93 +09 10 13.2 19.0   704 – Lincoln Laboratory ETS, New Mexico MPS 25763
2001 01 31.37442 10 46 01.66 +09 10 18.7 19.6   704 – Lincoln Laboratory ETS, New Mexico MPS 25763
2001 01 31.38934 10 46 01.03 +09 10 20.2 19.4   704 – Lincoln Laboratory ETS, New Mexico MPS 25763
2001 02 02.33693 10 44 30.76 +09 14 26.0 19.7   704 – Lincoln Laboratory ETS, New Mexico MPS 27056
2001 02 02.35184 10 44 30.15 +09 14 28.1 19.7   704 – Lincoln Laboratory ETS, New Mexico MPS 27056
2001 02 02.36675 10 44 29.46 +09 14 29.6 19.6   704 – Lincoln Laboratory ETS, New Mexico MPS 27056
2001 02 03.30887 10 43 43.85 +09 16 35.8 18.8   704 – Lincoln Laboratory ETS, New Mexico MPS 27056
2001 02 03.32387 10 43 43.03 +09 16 36.5 19.1   704 – Lincoln Laboratory ETS, New Mexico MPS 27056
2001 02 03.33872 10 43 42.27 +09 16 40.6 19.1   704 – Lincoln Laboratory ETS, New Mexico MPS 27056
2001 02 03.35356 10 43 41.41 +09 16 41.8 19.3   704 – Lincoln Laboratory ETS, New Mexico MPS 27056
2001 02 03.36841 10 43 40.77 +09 16 44.0 19.1   704 – Lincoln Laboratory ETS, New Mexico MPS 27056
2001 02 13.30469 10 34 37.83 +09 43 40.9 19.1 V 691 – Steward Observatory, Kitt Peak-Spacewatch MPS 27056
2001 02 13.32581 10 34 36.54 +09 43 44.8 19.3 V 691 – Steward Observatory, Kitt Peak-Spacewatch MPS 27056
2001 02 13.34684 10 34 35.24 +09 43 48.7 19.3 V 691 – Steward Observatory, Kitt Peak-Spacewatch MPS 27056
2001 02 19.20247 10 28 40.96 +10 01 54.6 18.3 R 699 – Lowell Observatory-LONEOS MPS 27056
2001 02 19.24145 10 28 38.34 +10 02 03.1   699 – Lowell Observatory-LONEOS MPS 27056
2001 02 19.28056 10 28 35.84 +10 02 09.5   699 – Lowell Observatory-LONEOS MPS 27056
2001 02 19.30981 10 28 34.03 +10 02 15.5 18.6   704 – Lincoln Laboratory ETS, New Mexico MPS 27056
2001 02 19.31993 10 28 33.39 +10 02 17.7   699 – Lowell Observatory-LONEOS MPS 27056
2001 02 19.32411 10 28 33.13 +10 02 18.3 18.4   704 – Lincoln Laboratory ETS, New Mexico MPS 27056
2001 02 19.33862 10 28 32.22 +10 02 20.2 18.9   704 – Lincoln Laboratory ETS, New Mexico MPS 27056
2001 02 19.35293 10 28 31.32 +10 02 24.3 18.6   704 – Lincoln Laboratory ETS, New Mexico MPS 27056
2001 02 19.36724 10 28 30.37 +10 02 27.2 18.9   704 – Lincoln Laboratory ETS, New Mexico MPS 27056
2001 02 20.36301 10 27 29.07 +10 05 32.2 18.6   704 – Lincoln Laboratory ETS, New Mexico MPS 27056
2001 02 20.37732 10 27 28.10 +10 05 35.6 18.7   704 – Lincoln Laboratory ETS, New Mexico MPS 27056
2001 02 20.39156 10 27 27.20 +10 05 38.2 18.5   704 – Lincoln Laboratory ETS, New Mexico MPS 27056
2001 02 20.40657 10 27 26.31 +10 05 40.7 18.3   704 – Lincoln Laboratory ETS, New Mexico MPS 27056
2001 02 22.30802 10 25 29.24 +10 11 36.7 18.2   704 – Lincoln Laboratory ETS, New Mexico MPS 27056
2001 02 22.32210 10 25 28.37 +10 11 38.6 18.3   704 – Lincoln Laboratory ETS, New Mexico MPS 27056
2001 02 22.33619 10 25 27.48 +10 11 41.5 18.5   704 – Lincoln Laboratory ETS, New Mexico MPS 27056
2001 02 22.35027 10 25 26.53 +10 11 44.4 18.3   704 – Lincoln Laboratory ETS, New Mexico MPS 27056
2001 02 22.36439 10 25 25.69 +10 11 46.6 18.8   704 – Lincoln Laboratory ETS, New Mexico MPS 27056
2001 02 27.08063 10 20 38.11 +10 26 01.3 18.9   106 – Crni Vrh MPS 27056
2001 02 27.10256 10 20 36.73 +10 26 05.4 18.6   106 – Crni Vrh MPS 27056
2001 02 27.12446 10 20 35.52 +10 26 10.0 19.2   106 – Crni Vrh MPS 27056
2001 03 14.17815 10 07 13.53 +11 01 32.0 19.2 R 699 – Lowell Observatory-LONEOS MPS 28050
2001 03 14.21102 10 07 12.02 +11 01 35.9   699 – Lowell Observatory-LONEOS MPS 28050
2001 03 14.24399 10 07 10.47 +11 01 39.2   699 – Lowell Observatory-LONEOS MPS 28050
2001 03 14.27673 10 07 08.89 +11 01 44.1   699 – Lowell Observatory-LONEOS MPS 28050
2001 03 15.30605 10 06 24.19 +11 03 19.2 19.2 R 701 – Junk Bond Observatory, Sierra Vista MPS 28050
2001 03 15.32976 10 06 23.09 +11 03 20.4 19.3 R 701 – Junk Bond Observatory, Sierra Vista MPS 28050
2001 03 15.35345 10 06 22.06 +11 03 22.5 19.4 R 701 – Junk Bond Observatory, Sierra Vista MPS 28050
2001 03 24.18837 10 01 07.92 +11 12 03.0 18.8   704 – Lincoln Laboratory ETS, New Mexico MPS 28050
2001 03 24.20116 10 01 07.46 +11 12 03.1 19.1   704 – Lincoln Laboratory ETS, New Mexico MPS 28050
2001 03 24.21477 10 01 07.10 +11 12 03.8 19.1   704 – Lincoln Laboratory ETS, New Mexico MPS 28050
2001 03 24.22754 10 01 06.73 +11 12 04.8 19.2   704 – Lincoln Laboratory ETS, New Mexico MPS 28050
2001 03 24.24066 10 01 06.28 +11 12 04.9 19.0   704 – Lincoln Laboratory ETS, New Mexico MPS 28050
2003 08 18.95719 22 02 44.73 -13 24 00.1 20.2 R 599 – Campo Imperatore-CINEOS MPS 82954
2003 08 18.96791 22 02 44.05 -13 24 01.3 20.3 R 599 – Campo Imperatore-CINEOS MPS 82955
2003 08 18.97865 22 02 43.29 -13 24 03.6 19.3 R 599 – Campo Imperatore-CINEOS MPS 82955
2003 08 18.98936 22 02 42.68 -13 24 05.6 19.4 R 599 – Campo Imperatore-CINEOS MPS 82955
2003 08 22.25367 21 59 30.68 -13 34 29.2 19.2   644 – Palomar Mountain/NEAT MPS 83309
2003 08 22.28209 21 59 28.94 -13 34 34.5 19.0   644 – Palomar Mountain/NEAT MPS 83309
2003 08 22.32797 21 59 26.14 -13 34 43.2 19.1   644 – Palomar Mountain/NEAT MPS 83309
2003 08 31.26188 21 50 40.97 -14 01 22.1 19.2   704 – Lincoln Laboratory ETS, New Mexico MPS 84004
2003 08 31.29748 21 50 38.87 -14 01 28.4 19.8   704 – Lincoln Laboratory ETS, New Mexico MPS 84004
2003 08 31.30930 21 50 38.14 -14 01 29.9 19.5   704 – Lincoln Laboratory ETS, New Mexico MPS 84004
2004 12 18.44200 10 18 30.83 +14 18 28.1 19.0   704 – Lincoln Laboratory ETS, New Mexico MPS 122657
2004 12 18.45542 10 18 31.14 +14 18 24.9 19.4   704 – Lincoln Laboratory ETS, New Mexico MPS 122657
2004 12 18.47053 10 18 31.51 +14 18 22.7 19.8   704 – Lincoln Laboratory ETS, New Mexico MPS 122657
2005 01 07.34543 10 19 58.61 +13 46 59.1 19.0 C 704 – Lincoln Laboratory ETS, New Mexico MPS 294274
2005 01 07.35878 10 19 58.20 +13 46 59.0 19.2 C 704 – Lincoln Laboratory ETS, New Mexico MPS 294274
2005 01 07.37207 10 19 57.96 +13 46 59.8 18.9 C 704 – Lincoln Laboratory ETS, New Mexico MPS 294274
2005 02 02.35190 10 02 35.84 +14 26 29.3 18.1 R 703 – Catalina Sky Survey MPS 125615
2005 02 02.35866 10 02 35.41 +14 26 31.4 18.7   704 – Lincoln Laboratory ETS, New Mexico MPS 125615
2005 02 02.35938 10 02 35.32 +14 26 30.5 18.3 R 703 – Catalina Sky Survey MPS 125615
2005 02 02.36690 10 02 34.89 +14 26 31.7 18.1 R 703 – Catalina Sky Survey MPS 125615
2005 02 02.37151 10 02 34.62 +14 26 32.7 18.9   704 – Lincoln Laboratory ETS, New Mexico MPS 125615
2005 02 02.37439 10 02 34.46 +14 26 32.5 18.1 R 703 – Catalina Sky Survey MPS 125615
2005 02 02.38541 10 02 33.74 +14 26 34.9 19.0   704 – Lincoln Laboratory ETS, New Mexico MPS 125615
2005 02 02.39837 10 02 32.95 +14 26 37.2 18.9   704 – Lincoln Laboratory ETS, New Mexico MPS 125615
2005 02 09.29395 09 55 31.36 +14 44 17.6 18.4 R 699 – Lowell Observatory-LONEOS MPS 126731
2005 02 09.31830 09 55 29.72 +14 44 21.4   699 – Lowell Observatory-LONEOS MPS 126731
2005 02 09.34263 09 55 28.16 +14 44 25.4   699 – Lowell Observatory-LONEOS MPS 126731
2005 02 09.36697 09 55 26.56 +14 44 28.8   699 – Lowell Observatory-LONEOS MPS 126731
2005 03 02.23836 09 34 58.99 +15 24 24.9 18.3 R 703 – Catalina Sky Survey MPS 127119
2005 03 02.24688 09 34 58.59 +15 24 24.6 18.8 R 703 – Catalina Sky Survey MPS 127119
2005 03 02.25539 09 34 58.15 +15 24 25.3 19.6 R 703 – Catalina Sky Survey MPS 127119
2005 03 02.26387 09 34 57.68 +15 24 25.6 19.4 R 703 – Catalina Sky Survey MPS 127119
2005 03 04.23196 09 33 24.09 +15 26 08.6 18.4 R G96 – Mt. Lemmon Survey MPS 127119
2005 03 04.23841 09 33 23.77 +15 26 08.8 18.4 R G96 – Mt. Lemmon Survey MPS 127119
2005 03 04.24487 09 33 23.46 +15 26 09.1 18.5 R G96 – Mt. Lemmon Survey MPS 127119
2005 03 04.25131 09 33 23.16 +15 26 09.5 18.4 R G96 – Mt. Lemmon Survey MPS 127119
2005 03 08.23146 09 30 31.99 +15 28 15.7 18.8   704 – Lincoln Laboratory ETS, New Mexico MPS 127824
